COSMOS 1275 DEB, 14441

Orbit data source: Space-Track

COSMOS 1275 DEB, 14441 is space debris in LEO originally from a launch on Thu, 04 Jun 1981 UTC launched from the Plesetsk Missile And Space Complex (PKMTR). Debris objects in space refer to the collection of defunct objects orbiting the Earth. Examples of debris include non-operational satellites, rocket bodies, and fragments generated from explosions, collisions, or faulty payload assembly.

Loading next visibility...
Identifier
14441, 1981-053JH
Orbit
LEO
Country
Flag of CISCIS
Related business
Manufacturer
Unknown
Mission
Spacecraft
Bus & Motor
Unknown
Mass
Unknown
Launch date (UTC)
1981-06-04 (44 years ago)
Launch vehicle
Unknown
Launch site
Plesetsk Missile And Space Complex (PKMTR)
Object type
Payload
Rocket body
Debris
Shape & HBR
Unknown shape, 0.1 m
Radar Cross Section
Small (<0.1 m²)

Expand to show TLE details & history
Last TLE update: 8 hours ago

TLE from 8 hours ago
0 COSMOS 1275 DEB
1 14441U 81053JH  25308.79963875  .00002255  00000-0  12291-2 0  9994
2 14441  83.1111  86.4496 0042697 271.4183  88.2102 14.11306472241403
Epoch: 2025-11-04T19:11Z
TLE epoch observation values (Epoch: 2025-11-04T19:11:28.788Z)
Latitude
-0.00007°
Longitude
114.29817°
Altitude
857.026 km
Speed
7.424 km/s
True Right ascension
05h 45m 47s
True Declination
0° 00' 00"
Sunlit
Object was in full shadow at epoch
Visualization orbit readout
Latitude
Unknown
Longitude
Unknown
Altitude
Unknown
Speed
Unknown
Apparent Right ascension
Unknown
Apparent Declination
Unknown
Sunlit
N/A
Visualization observer readout
Local Sidereal Time
22:53:26
Azimuth
Unknown
Elevation
Unknown
Doppler factor
Unknown
Orbital elements
Apogee altitude
882.867 km
Perigee altitude
821.126 km
Semi-major axis
7,230.134 km
Eccentricity
0.00427
Inclination
83.1111°
RAAN
86.4496°
Arg. of periapsis
271.4183°
True anomaly
88.69931°
Mean anomaly
88.2102°
Eccentric anomaly
88.45475°
Mean motion
3.5304 °/min
Orbital period
101.97 mins
BSTAR
0.0012291
Loading maneuver chart data...
Computing Atmospheric mass density...
Loading historical data...
Loading historical data...
Loading historical data...
Loading historical data...
Loading historical data...
Loading historical data...
Loading historical data...

Documentation

Showing up to 5 results
|